Regional Weather Roundup
Issued by NWS

Home | Current Version | Previous Version | Text Only | Print | Product List | Glossary Off
Versions: 1 2 3 4 5 6 7 8 9 10 11 12 13 14 15 16 17 18 19 20 21 22 23 24 25 26 27 28 29 30 31 32 33 34 35 36 37 38 39 40 41 42 43 44 45 46 47 48 49 50

000
ASUS43 KMPX 282010
RWRMN
WEATHER ROUNDUP FOR MINNESOTA
NATIONAL WEATHER SERVICE TWIN CITIES/CHANHASSEN MN
300 PM CDT THU AUG 28 2014


NOTE: "FAIR" INDICATES FEW OR NO CLOUDS BELOW 12,000 FEET WITH NO
SIGNIFICANT WEATHER AND/OR OBSTRUCTIONS TO VISIBILITY. N/A MEANS
CURRENT SKY AND/OR WEATHER CONDITIONS ARE NOT AVAILABLE.

MNZ060>063-068>070-282100-
   Twin Cities Metro

CITY           SKY/WX    TMP DP  RH WIND       PRES   REMARKS
TWIN CITIES    LGT RAIN  68  65  90 E10       30.00F
ST PAUL        LGT RAIN  68  65  90 E8        30.00F
CRYSTAL        LGT RAIN  70  62  76 SE10      29.99F
BLAINE         LGT RAIN  73  63  68 SE12      30.00F
LAKEVILLE      CLOUDY    64  64 100 E10       29.99F
EDEN PRAIRIE   CLOUDY    68  64  88 E8        29.98F
SOUTH ST PAUL  DRIZZLE   69  64  85 SE7       30.00F
LAKE ELMO      DRIZZLE   70  64  83 SE7       30.02F
$$
MNZ001>005-007-008-013>017-022>024-027-028-282100-
   Northwest Minnesota

CITY           SKY/WX    TMP DP  RH WIND       PRES   REMARKS
BEMIDJI        PTSUNNY   69  60  72 SE12      29.98F
HALLOCK        MOSUNNY   77  68  73 S17       29.87F
ROSEAU         PTSUNNY   73  64  73 S13       29.92F
WARROAD        PTSUNNY   72  64  78 S9        29.94F
THIEF RVR FALL CLOUDY    70  63  78 S8        29.94F
CROOKSTON      CLOUDY    72  64  78 S12G17    29.93F
FOSSTON        CLOUDY    72  61  68 S9        29.96F
DETROIT LAKES  CLOUDY    70  61  73 S13       29.98F
MOORHEAD       LGT RAIN  72  68  88 S9        29.94F
PARK RAPIDS    CLOUDY    72  59  63 SE14      29.98F
MAHNOMEN       CLOUDY    71  63  76 S8        29.95F
$$
MNZ006-009>011-018-025>026-282100-
   North Central Minnesota

CITY           SKY/WX    TMP DP  RH WIND       PRES   REMARKS
BAUDETTE       PTSUNNY   72  60  66 S8        29.95F
FLAG ISLAND    LGT RAIN  68  64  88 S9        29.92F
INTL FALLS     CLOUDY    71  58  63 S7        29.99F
WASKISH        PTSUNNY   72  63  73 CALM      29.97F
BIG FORK       PTSUNNY   70  61  73 SE5       30.01F
LONGVILLE      CLOUDY    72  61  68 SE10      29.99F
GRAND RAPIDS   CLOUDY    70  59  68 SE8       30.01F
CRANE LAKE     MOSUNNY   72  54  53 S3        30.02F
ORR            PTSUNNY   72  52  49 S6        29.99F
COOK           PTSUNNY   72  55  56 S5        30.02F
WALKER         FAIR      71  60  66 S8        29.98F
$$
MNZ012-019>021-037-282100-
   Northeast Minnesota

CITY           SKY/WX    TMP DP  RH WIND       PRES   REMARKS
DULUTH         PTSUNNY   71  55  56 SE7       30.04F
ELY            MOSUNNY   72  52  49 SW6       30.04F
HIBBING        CLOUDY    72  55  55 SE8       30.03F
EVELETH        PTSUNNY   72  54  53 SE5       30.04F
DULUTH HARBOR  PTSUNNY   66  61  82 NE9       30.04F
TWO HARBORS    PTSUNNY   72  55  56 SE5       30.03F
SILVER BAY     PTSUNNY   66  57  72 SE6       30.05F
GRAND MARAIS     N/A     64  57  78 SE3       30.07F
G MARAIS ARPRT MOSUNNY   66  52  59 S8        30.10F
$$
MNZ029>031-032-039>041-046>048-054>057-064-282100-
   West Central Minnesota

CITY           SKY/WX    TMP DP  RH WIND       PRES   REMARKS
FERGUS FALLS   DRIZZLE   68  63  83 SE8       29.95F
WHEATON        CLOUDY    64  63  94 SE9       29.95F
MORRIS         DRIZZLE   66  64  94 SE8       29.94F
ALEXANDRIA     LGT RAIN  68  64  87 SE6       29.98F
ELBOW LAKE     DRIZZLE   66  64  92 SE9       29.95F
WADENA         LGT RAIN  70  61  73 SE8       29.98F
GLENWOOD       DRIZZLE   68  63  83 SE10      29.98F
APPLETON       LGT RAIN  68  64  88 E10G16    29.93F
BENSON         LGT RAIN  66  63  88 SE6       29.95F
ORTONVILLE     LGT RAIN  66  63  88 E12       29.92F
MADISON        RAIN      70  68  94 SE9       29.93S
WILLMAR        DRIZZLE   66  63  88 SE13      29.97F
$$
MNZ033>034-036-042>043-049>051-058-059-282100-
   Central Minnesota

CITY           SKY/WX    TMP DP  RH WIND       PRES   REMARKS
ST CLOUD       CLOUDY    74  61  63 SE8       29.98F
SAUK CENTRE    CLOUDY    71  61  72 SE10      29.98F
PAYNESVILLE    RAIN      66  60  81 E8        29.98F
AITKIN         CLOUDY    73  63  68 S5        30.00F
PINE RIVER     CLOUDY    72  61  68 S9        30.03S
BRAINERD       CLOUDY    70  60  70 SE8       30.00F
STAPLES        CLOUDY    70  59  68 SE7       29.99F
LONG PRAIRIE   FAIR      70  61  73 E6        29.98F
LITTLE FALLS   CLOUDY    72  59  64 SE9       29.99F
LITCHFIELD     DRIZZLE   66  66 100 E10G16    29.98F
BUFFALO        DRIZZLE   66  62  85 SE7       30.00F
MAPLE LAKE     DRIZZLE   69  64  81 S5        30.00F
$$
MNZ037-044-045-052-053-282100-
   East Central Minnesota

CITY           SKY/WX    TMP DP  RH WIND       PRES   REMARKS
PRINCETON      CLOUDY    73  63  68 E9        30.00F
MORA           PTSUNNY   70  57  64 S7        30.02F
CAMBRIDGE      CLOUDY    75  61  60 E9        29.98F
RUSH CITY      PTSUNNY   73  61  65 S7        30.01F
MOOSE LAKE     PTSUNNY   72  57  60 SE3       30.01F
HINCKLEY       CLOUDY    73  59  60 SE8       30.01F
CLOQUET        PTSUNNY   72  55  56 SE6       30.03F
MCGREGOR       CLOUDY    72  59  64 S8        30.02F
$$
MNZ071>073-080-081-089-090-097-098-282100-
   Southwest Minnesota

CITY           SKY/WX    TMP DP  RH WIND       PRES   REMARKS
MONTEVIDEO     LGT RAIN  66  66 100 SE12      29.95F
GRANITE FALLS  RAIN      65  65  98 E9        29.95F
CANBY          CLOUDY    67  66  96 E7        29.93F
MARSHALL       CLOUDY    66  63  88 SE10      29.92F
REDWOOD FALLS  CLOUDY    66  65  96 E8        29.95F
OLIVIA         DRIZZLE   64  63  94 E9        29.96S
PIPESTONE      RAIN      70  66  88 SE8       29.92S
WINDOM         CLOUDY    72  66  83 SE9       29.94F
WORTHINGTON    CLOUDY    70  66  88 SE13      29.94S
JACKSON        CLOUDY    70  66  88 SE10      29.95F
TRACY          CLOUDY    68  67  95 CALM      29.94F
SLAYTON        CLOUDY    69  66  92 SE8       29.94F
$$
MNZ065>067-074>077-082>085-091>093-282100-
   South Central Minnesota

CITY           SKY/WX    TMP DP  RH WIND       PRES   REMARKS
MANKATO        CLOUDY    70  63  78 SE13      29.96F
NEW ULM        CLOUDY    70  68  94 E7        29.95F
ST JAMES       CLOUDY    73  66  78 SE9       29.95F
FAIRMONT       CLOUDY    66  63  88 SE9       29.94F
GLENCOE        CLOUDY    67  62  83 E12       29.97F
FARIBAULT      DRIZZLE   70  63  78 E8        29.99F
OWATONNA       DRIZZLE   66  64  94 E7        29.98F
WASECA         CLOUDY    63  59  88 E9        29.99F
ALBERT LEA     DRIZZLE   66  64  94 E7        29.97F
$$
MNZ078>079-086>088-094>096-282100-
   Southeast Minnesota

CITY           SKY/WX    TMP DP  RH WIND       PRES   REMARKS
ROCHESTER      LGT RAIN  65  62  90 SE12      30.02F FOG
RED WING       RAIN      66  64  94 E6        30.00F
STANTON        DRIZZLE   68  63  85 SE8       29.99F
DODGE CENTER   DRIZZLE   66  64  94 E9        30.00F
WINONA         LGT RAIN  66  64  94 CALM      30.03F
AUSTIN         RAIN      64  63  94 SE7       29.98F
PRESTON        CLOUDY    64  64 100 CALM      30.02F FOG
$$
ABBREVIATIONS USED IN REMARKS
   TC - TEMPERATURES IN CELSIUS
  WCI - WIND CHILL INDEX
   HX - HEAT INDEX
  VSB - VISIBILITY
$$



USA.gov is the U.S. government's official web portal to all federal, state and local government web resources and services.